Weather History for Albert Lea, MN

Change the Weather History Date:

Tuesday, September 17, 2013

  Actual Average Record
Temperature  
Mean Temperature 54 °F -  
Max Temperature 60 °F 69 °F 87 °F (2007)
Min Temperature 48 °F 49 °F 35 °F (1999)
Degree Days  
Heating Degree Days 11    
Growing Degree Days 4 (Base 50)    
Moisture  
Dew Point 51 °F    
Average Humidity 88    
Maximum Humidity 100    
Minimum Humidity 72    
Precipitation  
Precipitation 0.02 in - - ()
Sea Level Pressure  
Sea Level Pressure 30.13 in    
Wind  
Wind Speed 9 mph (SSE)    
Max Wind Speed 16 mph    
Max Gust Speed 22 mph    
Visibility 7 miles    
Events Rain    
Averages and records for this station are not official NWS values.
T = Trace of Precipitation, MM = Missing Value Source: NWS Daily Summary

Daily Weather History Graph

Daily Weather History Graph

Search for Another Location

Airport:

Trip Planner

Search our weather history database for the weather conditions in past years. The results will help you decide how hot, cold, wet, or windy it might be!

Date:

Astronomy

Sep. 17, 2013 Rise Set
Actual Time 6:55 AM CDT 7:19 PM CDT
Civil Twilight 6:26 AM CDT 7:48 PM CDT
Nautical Twilight 5:52 AM CDT 8:22 PM CDT
Astronomical Twilight 5:17 AM CDT 8:56 PM CDT
Moon 6:08 PM CDT (9/17) 4:48 AM CDT (9/17)
Length of Visible Light 13h 21m
Length of Day
12h 24m
Waxing Gibbous, 96% of the Moon is Illuminated
Sep 17
Waxing Gibbous
Sep 19
Full
Sep 26
Last Quarter
Oct 4
New
Oct 11
First Quarter

Hourly Weather History & Observations

Time (CDT) Temp. Dew Point Humidity Pressure Visibility Wind Dir Wind Speed Gust Speed Precip Events Conditions
12:11 AM 51.8 °F 44.6 °F 76% 30.28 in 10.0 mi SE 4.6 mph - N/A   Clear
12:32 AM 51.8 °F 44.6 °F 76% 30.27 in 10.0 mi SSE 8.1 mph - N/A   Clear
12:51 AM 51.8 °F 44.6 °F 76% 30.28 in 10.0 mi SSE 5.8 mph - N/A   Clear
1:11 AM 51.8 °F 44.6 °F 76% 30.27 in 10.0 mi South 8.1 mph - N/A   Clear
1:32 AM 51.8 °F 44.6 °F 76% 30.27 in 10.0 mi SSE 4.6 mph - N/A   Clear
1:51 AM 50.0 °F 44.6 °F 82% 30.27 in 10.0 mi SSE 3.5 mph - N/A   Clear
2:11 AM 50.0 °F 44.6 °F 82% 30.26 in 10.0 mi SSE 3.5 mph - N/A   Clear
2:31 AM 48.2 °F 44.6 °F 87% 30.26 in 10.0 mi SSE 4.6 mph - N/A   Clear
2:51 AM 48.2 °F 44.6 °F 87% 30.25 in 10.0 mi SSE 5.8 mph - N/A   Clear
3:12 AM 48.2 °F 44.6 °F 87% 30.25 in 10.0 mi SSE 4.6 mph - N/A   Clear
3:31 AM 50.0 °F 44.6 °F 82% 30.24 in 10.0 mi SSE 8.1 mph - N/A   Clear
3:51 AM 50.0 °F 44.6 °F 82% 30.24 in 10.0 mi SSE 6.9 mph - N/A   Clear
4:11 AM 50.0 °F 44.6 °F 82% 30.23 in 10.0 mi SSE 9.2 mph - N/A   Clear
4:31 AM 50.0 °F 44.6 °F 82% 30.23 in 10.0 mi SSE 10.4 mph - N/A   Clear
4:52 AM 50.0 °F 46.4 °F 87% 30.22 in 10.0 mi SSE 8.1 mph - N/A   Clear
5:11 AM 50.0 °F 46.4 °F 87% 30.23 in 10.0 mi SSE 9.2 mph - N/A   Clear
5:31 AM 50.0 °F 46.4 °F 87% 30.22 in 10.0 mi SSE 9.2 mph - N/A   Clear
5:51 AM 50.0 °F 46.4 °F 87% 30.22 in 10.0 mi SSE 9.2 mph - N/A   Clear
6:11 AM 50.0 °F 46.4 °F 87% 30.22 in 10.0 mi SSE 10.4 mph - N/A   Clear
6:31 AM 50.0 °F 46.4 °F 87% 30.22 in 10.0 mi SE 10.4 mph - N/A   Clear
6:51 AM 50.0 °F 46.4 °F 87% 30.22 in 10.0 mi SSE 9.2 mph - N/A   Clear
7:11 AM 50.0 °F 46.4 °F 87% 30.22 in 10.0 mi SE 9.2 mph - N/A   Clear
7:32 AM 48.2 °F 46.4 °F 93% 30.22 in 7.0 mi SE 9.2 mph - N/A   Clear
7:51 AM 48.2 °F 46.4 °F 93% 30.22 in 7.0 mi SE 6.9 mph - N/A   Clear
8:12 AM 50.0 °F 48.2 °F 94% 30.21 in 7.0 mi SE 9.2 mph - N/A   Clear
8:31 AM 51.8 °F 48.2 °F 88% 30.21 in 10.0 mi SE 8.1 mph - N/A   Clear
8:51 AM 51.8 °F 48.2 °F 88% 30.20 in 10.0 mi SSE 8.1 mph - N/A   Clear
9:12 AM 53.6 °F 48.2 °F 82% 30.20 in 10.0 mi SSE 9.2 mph - N/A   Clear
9:31 AM 55.4 °F 50.0 °F 82% 30.19 in 10.0 mi SE 10.4 mph - N/A   Clear
9:51 AM 55.4 °F 50.0 °F 82% 30.19 in 10.0 mi SSE 10.4 mph 16.1 mph N/A   Clear
10:11 AM 55.4 °F 50.0 °F 82% 30.18 in 10.0 mi SSE 10.4 mph 17.3 mph N/A   Clear
10:31 AM 55.4 °F 50.0 °F 82% 30.18 in 10.0 mi SSE 13.8 mph 18.4 mph N/A   Clear
10:52 AM 57.2 °F 51.8 °F 82% 30.18 in 10.0 mi SSE 15.0 mph 20.7 mph N/A   Clear
11:11 AM 57.2 °F 51.8 °F 82% 30.17 in 10.0 mi SSE 11.5 mph - N/A   Scattered Clouds
11:31 AM 57.2 °F 51.8 °F 82% 30.17 in 10.0 mi SSE 16.1 mph 19.6 mph N/A   Mostly Cloudy
11:51 AM 59.0 °F 51.8 °F 77% 30.17 in 10.0 mi SSE 12.7 mph - N/A   Mostly Cloudy
12:11 PM 59.0 °F 51.8 °F 77% 30.15 in 10.0 mi SSE 13.8 mph 19.6 mph N/A   Mostly Cloudy
12:31 PM 59.0 °F 51.8 °F 77% 30.15 in 10.0 mi SSE 12.7 mph 18.4 mph N/A   Overcast
12:51 PM 60.8 °F 51.8 °F 72% 30.14 in 10.0 mi SSE 12.7 mph 19.6 mph N/A   Overcast
1:11 PM 59.0 °F 51.8 °F 77% 30.13 in 10.0 mi SSE 11.5 mph - N/A   Overcast
1:31 PM 59.0 °F 51.8 °F 77% 30.12 in 10.0 mi SSE 16.1 mph - N/A   Overcast
1:51 PM 59.0 °F 53.6 °F 82% 30.11 in 10.0 mi South 11.5 mph 19.6 mph N/A   Overcast
2:11 PM 59.0 °F 53.6 °F 82% 30.10 in 7.0 mi SE 12.7 mph 18.4 mph N/A   Overcast
2:31 PM 57.2 °F 53.6 °F 88% 30.10 in 7.0 mi SSE 12.7 mph 20.7 mph N/A   Overcast
2:51 PM 57.2 °F 53.6 °F 88% 30.09 in 2.5 mi SSE 15.0 mph 21.9 mph N/A   Overcast
3:11 PM 57.2 °F 55.4 °F 94% 30.08 in 2.0 mi SE 11.5 mph - N/A   Overcast
3:31 PM 57.2 °F 55.4 °F 94% 30.07 in 2.0 mi SE 9.2 mph - N/A   Drizzle
3:51 PM 57.2 °F 55.4 °F 94% 30.06 in 3.0 mi SE 13.8 mph 17.3 mph N/A   Light Drizzle
4:11 PM 57.2 °F 55.4 °F 94% 30.06 in 3.0 mi SE 12.7 mph 18.4 mph N/A Rain Light Rain
4:31 PM 57.2 °F 55.4 °F 94% 30.04 in 2.5 mi SSE 10.4 mph 19.6 mph N/A Rain Rain
4:51 PM 57.2 °F 55.4 °F 94% 30.04 in 3.0 mi SSE 11.5 mph - N/A Rain Light Rain
5:12 PM 57.2 °F 57.2 °F 100% 30.03 in 4.0 mi SE 15.0 mph 20.7 mph N/A   Drizzle
5:31 PM 57.2 °F 57.2 °F 100% 30.03 in 4.0 mi SSE 11.5 mph 18.4 mph N/A   Light Drizzle
5:51 PM 57.2 °F 57.2 °F 100% 30.02 in 2.0 mi SSE 11.5 mph 17.3 mph 0.01 in Rain Light Rain
6:11 PM 57.2 °F 57.2 °F 100% 30.02 in 2.5 mi SSE 11.5 mph 16.1 mph 0.01 in   Overcast
6:32 PM 57.2 °F 57.2 °F 100% 30.01 in 4.0 mi SE 10.4 mph 17.3 mph 0.01 in   Overcast
6:51 PM 57.2 °F 57.2 °F 100% 30.00 in 2.0 mi SSE 11.5 mph - N/A   Overcast
7:11 PM 57.2 °F 57.2 °F 100% 30.00 in 2.0 mi SSE 11.5 mph 19.6 mph N/A   Overcast
7:31 PM 57.2 °F 57.2 °F 100% 29.99 in 2.0 mi SSE 12.7 mph - N/A Rain Light Rain
7:51 PM 57.2 °F 57.2 °F 100% 29.99 in 2.0 mi SSE 10.4 mph 19.6 mph N/A   Light Drizzle
8:11 PM 57.2 °F 57.2 °F 100% 29.99 in 1.8 mi SSE 13.8 mph 18.4 mph N/A Rain Light Rain
8:31 PM 57.2 °F 57.2 °F 100% 30.00 in 1.5 mi South 10.4 mph 16.1 mph N/A   Drizzle
8:51 PM 57.2 °F 57.2 °F 100% 29.99 in 2.0 mi South 11.5 mph 17.3 mph N/A Rain Light Rain
9:12 PM 59.0 °F 57.2 °F 94% 30.00 in 2.0 mi South 11.5 mph 17.3 mph N/A   Overcast
9:31 PM 59.0 °F 57.2 °F 94% 29.99 in 1.5 mi South 10.4 mph - N/A   Overcast
9:51 PM 59.0 °F 57.2 °F 94% 29.98 in 1.0 mi SSE 10.4 mph - N/A   Overcast
10:12 PM 59.0 °F 57.2 °F 94% 29.99 in 1.0 mi South 8.1 mph - N/A   Overcast
10:31 PM 59.0 °F 59.0 °F 100% 29.98 in 0.8 mi SSE 11.5 mph 16.1 mph N/A   Overcast
10:51 PM 60.8 °F 59.0 °F 94% 29.97 in 0.8 mi South 10.4 mph - N/A   Overcast
11:12 PM 60.8 °F 59.0 °F 94% 29.97 in 0.8 mi South 10.4 mph 20.7 mph N/A   Overcast
11:31 PM 60.8 °F 60.8 °F 100% 29.97 in 1.0 mi South 11.5 mph 16.1 mph N/A Rain Rain
11:51 PM 60.8 °F 60.8 °F 100% 29.97 in 1.2 mi South 8.1 mph 17.3 mph N/A Rain Light Rain